Location: Centerville
(32.8776°N, 96.6203°W)
Time: 23:04:08
(UTC+00:00)

Cosmos 1726 - Pass Details

Date: 17 June 2021
Orbit: 480 x 495 km, 82.5° (Epoch: 01 August)

Event Time Altitude Azimuth Distance (km) Brightness Sun altitude
Rises 02:57:22 0° 359° (N) 2,544 6.4 -14.7°
Reaches altitude 10° 02:59:31 10° 5° (N) 1,661 5.3 -15.0°
Maximum altitude 03:03:04 51° 82° (E) 614 2.3 -15.6°
Enters shadow 03:04:18 33° 138° (SE) 819 2.6 -15.8°
